User: anonymous   Login
Location: Unspecified
(0.0000°N, 0.0000°E)
Time: 18:46:25
(UTC+00:00)
Language:

DNEPR OBJECT U - Orbit

View from above orbital plane
View from above orbital plane
View from above satellite
View from above satellite

Ground track
Ground track

The orbit data is extracted from the following two-line orbital elements,

1 39434U 13066U   17145.90604358 +.00002019 +00000-0 +15641-3 0  9994
2 39434 097.6456 222.0693 0033324 237.7279 122.0707 15.02137845191486
Epoch (UTC): 25 May 2017 21:44:42
Eccentricity: 0.0033324
inclination: 97.6456°
perigee height: 537 km
apogee height: 583 km
right ascension of ascending node: 222.0693°
argument of perigee: 237.7279°
revolutions per day: 15.02137845
mean anomaly at epoch: 122.0707°
orbit number at epoch: 19148

The dashed part of the orbit path shows where the satellite is in the earth's shadow,  

DLR